AIC9VJ VABB-VIDP

Flight info

Callsign AIC9VJ
Flight time N/A
Altitude 37000
Route ANOL2AXISRIS/27 ISRIS Q1 UKASO UKASO6A
Aircraft A320/M-SDE3FGHIRWY/LB1

Departure

Time N/A
Airport Chhatrapati Shivaji Maharaj International Airport (VABB)

Arrival

Time 2026-05-06 10:33
Airport Indira Gandhi International Airport (VIDP)
Time Latitude Longitude Altitude Speed Heading
2026-05-06 09:43 28.51415 76.75947 16193 ft 366 kts 101°
2026-05-06 09:43 28.50798 76.78793 15526 ft 372 kts 102°
2026-05-06 09:43 28.50178 76.81665 14876 ft 377 kts 102°
2026-05-06 09:43 28.49556 76.84578 14234 ft 381 kts 102°
2026-05-06 09:44 28.48930 76.87525 13606 ft 384 kts 102°
2026-05-06 09:44 28.48299 76.90490 12905 ft 386 kts 102°
2026-05-06 09:44 28.47663 76.93463 12221 ft 387 kts 102°
2026-05-06 09:44 28.47031 76.96427 11551 ft 386 kts 102°
2026-05-06 09:45 28.46398 76.99395 10899 ft 385 kts 102°
2026-05-06 09:45 28.45766 77.02344 10259 ft 383 kts 102°
2026-05-06 09:45 28.45134 77.05279 9625 ft 381 kts 102°
2026-05-06 09:45 28.44716 77.07217 9167 ft 379 kts 102°
2026-05-06 09:46 28.43908 77.10951 8298 ft 375 kts 103°
2026-05-06 09:46 28.43289 77.13815 7640 ft 372 kts 103°
2026-05-06 09:46 28.42677 77.16652 6995 ft 368 kts 103°
2026-05-06 09:46 28.42072 77.19459 6365 ft 364 kts 103°
2026-05-06 09:47 28.41474 77.22229 5934 ft 354 kts 103°
2026-05-06 09:47 28.40899 77.24881 5798 ft 337 kts 103°
2026-05-06 09:47 28.40356 77.27378 5810 ft 314 kts 103°
2026-05-06 09:47 28.39867 77.29562 5814 ft 295 kts 104°
2026-05-06 09:48 28.39327 77.31735 5816 ft 278 kts 106°
2026-05-06 09:48 28.38796 77.33767 5821 ft 259 kts 106°
2026-05-06 09:48 28.38418 77.35693 5819 ft 240 kts 102°
2026-05-06 09:48 28.38018 77.37462 5819 ft 223 kts 105°
2026-05-06 09:49 28.37603 77.39148 5679 ft 223 kts 105°
2026-05-06 09:49 28.37183 77.40833 5430 ft 220 kts 105°
2026-05-06 09:49 28.36900 77.41958 5266 ft 219 kts 105°
2026-05-06 09:49 28.36486 77.43611 5030 ft 218 kts 105°
2026-05-06 09:50 28.36116 77.45278 4793 ft 217 kts 99°
2026-05-06 09:50 28.35802 77.46968 4448 ft 223 kts 103°
2026-05-06 09:50 28.35436 77.48715 3959 ft 232 kts 103°
2026-05-06 09:50 28.35047 77.50535 3470 ft 241 kts 103°
2026-05-06 09:51 28.34642 77.52404 3071 ft 243 kts 103°
2026-05-06 09:51 28.34247 77.54217 3010 ft 230 kts 103°
2026-05-06 09:51 28.33879 77.55910 3005 ft 210 kts 103°
2026-05-06 09:51 28.33607 77.57447 3005 ft 188 kts 85°
2026-05-06 09:52 28.34013 77.58870 3045 ft 191 kts 55°
2026-05-06 09:52 28.34793 77.60048 3042 ft 187 kts 43°
2026-05-06 09:52 28.35787 77.60985 3027 ft 185 kts 31°
2026-05-06 09:52 28.36968 77.61482 3017 ft 182 kts
2026-05-06 09:53 28.38176 77.61203 3010 ft 178 kts 329°
2026-05-06 09:53 28.39085 77.60273 3009 ft 177 kts 309°
2026-05-06 09:53 28.39981 77.59316 3006 ft 175 kts 320°
2026-05-06 09:53 28.40889 77.58502 3019 ft 167 kts 321°
2026-05-06 09:54 28.41816 77.57683 3019 ft 167 kts 321°
2026-05-06 09:54 28.42705 77.56858 3017 ft 167 kts 317°
2026-05-06 09:54 28.43569 77.55978 3014 ft 167 kts 317°
2026-05-06 09:54 28.44414 77.55085 2883 ft 166 kts 316°
2026-05-06 09:55 28.45255 77.54188 2773 ft 165 kts 316°
2026-05-06 09:55 28.46097 77.53305 2691 ft 166 kts 316°
2026-05-06 09:55 28.46943 77.52416 2623 ft 165 kts 316°
2026-05-06 09:55 28.47782 77.51525 2612 ft 166 kts 315°
2026-05-06 09:56 28.48614 77.50613 2619 ft 167 kts 315°
2026-05-06 09:56 28.49441 77.49697 2617 ft 165 kts 315°
2026-05-06 09:56 28.50262 77.48783 2615 ft 165 kts 315°
2026-05-06 09:56 28.51033 77.47816 2617 ft 165 kts 307°
2026-05-06 09:57 28.51636 77.46715 2614 ft 164 kts 297°
2026-05-06 09:57 28.52123 77.45540 2615 ft 165 kts 295°
2026-05-06 09:57 28.52592 77.44352 2621 ft 164 kts 294°
2026-05-06 09:57 28.53100 77.43187 2618 ft 166 kts 296°
2026-05-06 09:58 28.53618 77.42023 2618 ft 164 kts 297°
2026-05-06 09:58 28.54128 77.40878 2635 ft 162 kts 297°
2026-05-06 09:58 28.54638 77.39735 2611 ft 162 kts 297°
2026-05-06 09:58 28.55152 77.38582 2613 ft 163 kts 296°
2026-05-06 09:59 28.55661 77.37438 2616 ft 163 kts 297°
2026-05-06 09:59 28.56171 77.36290 2605 ft 162 kts 295°
2026-05-06 09:59 28.56380 77.35063 2609 ft 159 kts 271°
2026-05-06 09:59 28.56430 77.33800 2608 ft 161 kts 275°
2026-05-06 10:00 28.56477 77.32564 2613 ft 155 kts 275°
2026-05-06 10:00 28.56513 77.31347 2608 ft 153 kts 275°
2026-05-06 10:00 28.56546 77.30128 2605 ft 155 kts 273°
2026-05-06 10:00 28.56578 77.28903 2605 ft 155 kts 273°
2026-05-06 10:01 28.56608 77.27688 2614 ft 153 kts 273°
2026-05-06 10:01 28.56637 77.26513 2610 ft 145 kts 273°
2026-05-06 10:01 28.56664 77.25378 2605 ft 143 kts 274°
2026-05-06 10:01 28.56692 77.24247 2607 ft 145 kts 275°
2026-05-06 10:02 28.56719 77.23115 2569 ft 142 kts 273°
2026-05-06 10:02 28.56746 77.21985 2461 ft 142 kts 275°
2026-05-06 10:02 28.56772 77.20892 2310 ft 137 kts 274°
2026-05-06 10:02 28.56794 77.19910 2160 ft 135 kts 274°
2026-05-06 10:03 28.56820 77.18866 2004 ft 132 kts 274°
2026-05-06 10:03 28.56846 77.17805 1835 ft 136 kts 272°
2026-05-06 10:03 28.56871 77.16746 1671 ft 133 kts 274°
2026-05-06 10:03 28.56896 77.15683 1501 ft 136 kts 274°
2026-05-06 10:04 28.56921 77.14605 1328 ft 135 kts 271°
2026-05-06 10:04 28.56946 77.13531 1152 ft 137 kts 271°
2026-05-06 10:04 28.56971 77.12445 964 ft 139 kts 272°
2026-05-06 10:04 28.56996 77.11349 791 ft 137 kts 266°
2026-05-06 10:05 28.56993 77.10286 845 ft 133 kts 269°
2026-05-06 10:05 28.57064 77.09267 1254 ft 136 kts 275°
2026-05-06 10:05 28.57164 77.08089 1186 ft 157 kts 282°
2026-05-06 10:05 28.57358 77.06888 1429 ft 158 kts 285°
2026-05-06 10:06 28.57717 77.05753 2462 ft 156 kts 298°
2026-05-06 10:06 28.58333 77.04407 2508 ft 230 kts 293°
2026-05-06 10:06 28.58833 77.02398 2503 ft 296 kts 283°
2026-05-06 10:06 28.59294 76.99907 2505 ft 344 kts 282°
2026-05-06 10:07 28.59783 76.97223 3093 ft 334 kts 282°
2026-05-06 10:07 28.60234 76.94715 3505 ft 328 kts 282°
2026-05-06 10:07 28.60698 76.92189 4826 ft 313 kts 283°
2026-05-06 10:07 28.61334 76.89999 5878 ft 279 kts 294°
2026-05-06 10:08 28.62151 76.88140 6307 ft 246 kts 308°
2026-05-06 10:08 28.63318 76.86882 6526 ft 217 kts 321°
2026-05-06 10:08 28.64514 76.85868 6721 ft 218 kts 323°
2026-05-06 10:08 28.65751 76.84854 6793 ft 219 kts 323°
2026-05-06 10:09 28.66992 76.83845 6804 ft 219 kts 323°
2026-05-06 10:09 28.68233 76.82835 6810 ft 219 kts 323°
2026-05-06 10:09 28.69525 76.81788 6808 ft 244 kts 326°
2026-05-06 10:09 28.71224 76.81046 6801 ft 274 kts 349°
2026-05-06 10:10 28.73122 76.80788 6804 ft 275 kts 353°
2026-05-06 10:10 28.75028 76.80598 6809 ft 275 kts 353°
2026-05-06 10:10 28.76946 76.80415 6804 ft 277 kts 353°
2026-05-06 10:10 28.78867 76.80440 6803 ft 279 kts 11°
2026-05-06 10:11 28.80700 76.81199 6809 ft 280 kts 18°
2026-05-06 10:11 28.82567 76.81532 6807 ft 275 kts 352°
2026-05-06 10:11 28.84369 76.80844 6808 ft 271 kts 325°
2026-05-06 10:11 28.85653 76.79288 6807 ft 271 kts 298°
2026-05-06 10:12 28.86143 76.77226 6802 ft 273 kts 271°
2026-05-06 10:12 28.85726 76.75127 6805 ft 276 kts 244°
2026-05-06 10:12 28.84484 76.73456 6805 ft 281 kts 217°
2026-05-06 10:12 28.82714 76.72469 6803 ft 286 kts 203°
2026-05-06 10:13 28.80844 76.71702 6807 ft 285 kts 199°
2026-05-06 10:13 28.79002 76.70961 6804 ft 285 kts 201°
2026-05-06 10:13 28.77124 76.70224 6808 ft 285 kts 201°
2026-05-06 10:13 28.75253 76.69492 6803 ft 285 kts 201°
2026-05-06 10:14 28.73322 76.68948 6804 ft 286 kts 193°
2026-05-06 10:14 28.71356 76.68570 6803 ft 286 kts 191°
2026-05-06 10:14 28.69384 76.68209 6803 ft 287 kts 191°
2026-05-06 10:14 28.67407 76.67849 6804 ft 287 kts 191°
2026-05-06 10:15 28.65437 76.67486 6813 ft 287 kts 191°
2026-05-06 10:15 28.63468 76.67114 6812 ft 287 kts 191°
2026-05-06 10:15 28.61495 76.66751 6805 ft 287 kts 191°
2026-05-06 10:15 28.59519 76.66393 6806 ft 287 kts 191°
2026-05-06 10:16 28.57546 76.66029 6800 ft 287 kts 191°
2026-05-06 10:16 28.55549 76.65850 6802 ft 289 kts 179°
2026-05-06 10:16 28.53564 76.66018 6806 ft 290 kts 176°
2026-05-06 10:16 28.51551 76.66233 6802 ft 290 kts 176°
2026-05-06 10:17 28.49538 76.66455 6802 ft 290 kts 176°
2026-05-06 10:17 28.47532 76.66677 6807 ft 290 kts 176°
2026-05-06 10:17 28.45522 76.66905 6804 ft 290 kts 175°
2026-05-06 10:17 28.43521 76.67218 6806 ft 290 kts 173°
2026-05-06 10:18 28.41522 76.67552 6810 ft 291 kts 173°
2026-05-06 10:18 28.39521 76.67892 6804 ft 291 kts 173°
2026-05-06 10:18 28.37588 76.68556 6812 ft 293 kts 152°
2026-05-06 10:18 28.36018 76.70010 6809 ft 294 kts 128°
2026-05-06 10:19 28.35091 76.72058 6811 ft 293 kts 103°
2026-05-06 10:19 28.34945 76.74349 6808 ft 292 kts 83°
2026-05-06 10:19 28.35170 76.76632 6810 ft 292 kts 82°
2026-05-06 10:19 28.35400 76.78921 6812 ft 291 kts 82°
2026-05-06 10:20 28.35627 76.81208 6742 ft 293 kts 82°
2026-05-06 10:20 28.35852 76.83496 6461 ft 290 kts 82°
2026-05-06 10:20 28.36075 76.85766 6183 ft 289 kts 82°
2026-05-06 10:20 28.36296 76.88019 5886 ft 286 kts 82°
2026-05-06 10:21 28.36519 76.90273 5593 ft 285 kts 82°
2026-05-06 10:21 28.36739 76.92509 5303 ft 285 kts 82°
2026-05-06 10:21 28.36954 76.94738 5015 ft 283 kts 82°
2026-05-06 10:21 28.37170 76.96962 4726 ft 281 kts 83°
2026-05-06 10:22 28.37384 76.99176 4434 ft 282 kts 83°
2026-05-06 10:22 28.37598 77.01387 4139 ft 280 kts 83°
2026-05-06 10:22 28.37811 77.03586 3846 ft 280 kts 82°
2026-05-06 10:22 28.38019 77.05741 3561 ft 277 kts 82°
2026-05-06 10:23 28.38229 77.07924 3274 ft 277 kts 82°
2026-05-06 10:23 28.38438 77.10101 3048 ft 275 kts 83°
2026-05-06 10:23 28.38639 77.12201 2997 ft 259 kts 83°
2026-05-06 10:23 28.38829 77.14200 3003 ft 253 kts 83°
2026-05-06 10:24 28.39016 77.16172 3005 ft 252 kts 83°
2026-05-06 10:24 28.39206 77.18168 3002 ft 253 kts 82°
2026-05-06 10:24 28.39394 77.20153 3003 ft 252 kts 82°
2026-05-06 10:24 28.39584 77.22139 3002 ft 254 kts 83°
2026-05-06 10:25 28.39775 77.24124 3006 ft 253 kts 82°
2026-05-06 10:25 28.40212 77.26049 3007 ft 251 kts 65°
2026-05-06 10:25 28.41081 77.27713 3003 ft 236 kts 49°
2026-05-06 10:25 28.42209 77.28967 3003 ft 219 kts 34°
2026-05-06 10:26 28.43500 77.29830 3002 ft 214 kts 21°
2026-05-06 10:26 28.44883 77.30460 3004 ft 214 kts 20°
2026-05-06 10:26 28.46269 77.31095 3006 ft 216 kts 20°
2026-05-06 10:26 28.47657 77.31733 3004 ft 215 kts 21°
2026-05-06 10:27 28.49042 77.32370 3003 ft 214 kts 21°
2026-05-06 10:27 28.50425 77.33010 3004 ft 214 kts 21°
2026-05-06 10:27 28.51803 77.33647 2872 ft 214 kts 20°
2026-05-06 10:27 28.53128 77.34233 2733 ft 192 kts 14°
2026-05-06 10:28 28.54364 77.34288 2617 ft 162 kts 347°
2026-05-06 10:28 28.55311 77.33843 2558 ft 143 kts 326°
2026-05-06 10:28 28.56029 77.33054 2503 ft 144 kts 304°
2026-05-06 10:28 28.56442 77.32014 2507 ft 145 kts 284°
2026-05-06 10:29 28.56523 77.30867 2496 ft 146 kts 272°
2026-05-06 10:29 28.56539 77.30104 2496 ft 146 kts 272°
2026-05-06 10:29 28.56566 77.28953 2509 ft 146 kts 272°
2026-05-06 10:29 28.56594 77.27805 2505 ft 145 kts 272°
2026-05-06 10:30 28.56623 77.26657 2505 ft 145 kts 272°
2026-05-06 10:30 28.56651 77.25515 2496 ft 145 kts 272°
2026-05-06 10:30 28.56680 77.24357 2505 ft 146 kts 273°
2026-05-06 10:30 28.56708 77.23207 2507 ft 145 kts 272°
2026-05-06 10:31 28.56737 77.22060 2509 ft 145 kts 274°
2026-05-06 10:31 28.56767 77.20903 2499 ft 146 kts 273°
2026-05-06 10:31 28.56794 77.19749 2507 ft 146 kts 273°
2026-05-06 10:31 28.56821 77.18597 2488 ft 146 kts 272°
2026-05-06 10:32 28.56848 77.17440 2167 ft 147 kts 272°
2026-05-06 10:32 28.56875 77.16291 2012 ft 144 kts 272°
2026-05-06 10:32 28.56902 77.15145 1884 ft 145 kts 272°
2026-05-06 10:32 28.56929 77.14014 1763 ft 143 kts 272°
2026-05-06 10:33 28.56961 77.12874 1449 ft 148 kts 272°
2026-05-06 10:33 28.56993 77.11652 889 ft 157 kts 271°
2026-05-06 10:33 28.57016 77.10506 755 ft 131 kts 269°
2026-05-06 10:33 28.57035 77.09774 740 ft 47 kts 271°
2026-05-06 10:34 28.57034 77.09419 738 ft 42 kts 269°
2026-05-06 10:34 28.56951 77.09192 734 ft 26 kts 241°
2026-05-06 10:34 28.56885 77.09062 734 ft 6 kts 240°
2026-05-06 10:34 28.56884 77.09060 734 ft 0 kts 240°
2026-05-06 10:35 28.56871 77.09034 733 ft 7 kts 240°
2026-05-06 10:36 28.56821 77.09008 733 ft 8 kts 174°
2026-05-06 10:36 28.56752 77.09023 737 ft 11 kts 169°
2026-05-06 10:36 28.56669 77.09041 739 ft 18 kts 168°
2026-05-06 10:36 28.56539 77.09069 737 ft 20 kts 171°
2026-05-06 10:37 28.56399 77.09101 741 ft 21 kts 174°
2026-05-06 10:37 28.56249 77.09072 740 ft 23 kts 194°
2026-05-06 10:37 28.56087 77.09034 740 ft 25 kts 187°
2026-05-06 10:37 28.55963 77.09000 740 ft 13 kts 222°
2026-05-06 10:38 28.55959 77.08964 740 ft 5 kts 282°
2026-05-06 10:38 28.55965 77.08908 737 ft 0 kts 279°